sat.trackr.live / text

‹ back to catalog

STARLINK-31485

NORAD 59308 · 2024-056N

PAYLOAD ACTIVE UNKNOWN

§ Identity

Operator
Country
US
Launch date
2024-03-24
Launch site
AFETR
Launch vehicle
Mass (kg)
RCS (m²)

Purposes: comms

External: N2YO · Heavens-Above · Gunter

§ Orbital elements

Epoch: 2026-09-20T13:21:50.019552Z

Period
94.27 min
Inclination
43.0041°
Eccentricity
0.0002123
Mean motion
15.27578365 rev/d
Perigee alt
481.6 km
Apogee alt
484.5 km
Semi-major
6,861.2 km
B*
2.7708e-5
RAAN
210.4597°
Arg perigee
266.4978°
Mean anomaly
93.5631°
Rev number
14,095

§ Raw data

STARLINK-314851 59308U 24056N   26263.55682893  .00000500  00000+0  27708-4 0  99992 59308  43.0041 210.4597 0002123 266.4978  93.5631 15.27578365140952

JSON: /api/v1/satellites/59308 · /tle

For live sub-satellite position, see the globe view (requires WebGL).

§ Visibility from observer

Set your observer location to see the next 7 days of passes ≥ 10°. The values pass through the URL so the page stays shareable.

No JS? Fill the form by hand. The geolocation button needs JavaScript.